• In Hungary
  • List of Countries
  • For 7 days
  • Water Temperature
  • Satellite Maps
  • Weather Map
  • News
  • Weather Widgets
  • user-avatar
    Login

    Hourly Weather Baydankino

    Today, 26 May, Saturday

    Time Temperature Precipitation Wind Pressure Humidity
    00:00 +5°C° 0 mm 5 mps 761 mmHg 60%
    01:00 +3°C° 0 mm 5 mps 762 mmHg 60%
    02:00 +2°C° 0 mm 5 mps 762 mmHg 61%
    03:00 +3°C° 0 mm 4 mps 763 mmHg 66%
    04:00 +2°C° 0 mm 5 mps 763 mmHg 62%
    05:00 +3°C° 0 mm 6 mps 763 mmHg 59%
    06:00 +3°C° 0 mm 7 mps 764 mmHg 55%
    07:00 +4°C° 0 mm 7 mps 764 mmHg 52%
    08:00 +5°C° 0 mm 7 mps 765 mmHg 49%
    09:00 +6°C° 0 mm 8 mps 765 mmHg 45%
    10:00 +8°C° 0 mm 7 mps 765 mmHg 44%
    11:00 +9°C° 0 mm 7 mps 765 mmHg 43%
    12:00 +10°C° 0 mm 7 mps 765 mmHg 42%
    13:00 +11°C° 0 mm 7 mps 765 mmHg 41%
    14:00 +11°C° 0 mm 6 mps 765 mmHg 41%
    15:00 +13°C° 0 mm 6 mps 765 mmHg 41%
    16:00 +13°C° 0 mm 5 mps 765 mmHg 45%
    17:00 +12°C° 0 mm 4 mps 765 mmHg 50%
    18:00 +12°C° 0 mm 3 mps 765 mmHg 55%
    19:00 +12°C° 0 mm 2 mps 765 mmHg 57%
    20:00 +9°C° 0 mm 2 mps 765 mmHg 60%
    21:00 +7°C° 0 mm 2 mps 766 mmHg 62%
    22:00 +7°C° 0 mm 2 mps 766 mmHg 64%
    23:00 +7°C° 0 mm 2 mps 765 mmHg 65%

    Tomorrow, 27 May, Sunday

    Time Temperature Precipitation Wind Pressure Humidity
    00:00 +6°C° 0 mm 2 mps 765 mmHg 67%
    01:00 +5°C° 0 mm 3 mps 765 mmHg 68%
    02:00 +5°C° 0 mm 3 mps 765 mmHg 68%
    03:00 +5°C° 0 mm 4 mps 765 mmHg 69%
    04:00 +6°C° 0 mm 5 mps 764 mmHg 68%
    05:00 +8°C° 0 mm 5 mps 764 mmHg 66%
    06:00 +9°C° 0 mm 6 mps 763 mmHg 65%
    07:00 +11°C° 0 mm 7 mps 763 mmHg 63%
    08:00 +12°C° 0 mm 7 mps 762 mmHg 61%
    09:00 +15°C° 0 mm 8 mps 762 mmHg 58%
    10:00 +16°C° 0 mm 9 mps 761 mmHg 57%
    11:00 +18°C° 0 mm 9 mps 760 mmHg 57%
    12:00 +19°C° 0 mm 10 mps 759 mmHg 56%
    13:00 +19°C° 0 mm 10 mps 758 mmHg 56%
    14:00 +19°C° 0 mm 10 mps 757 mmHg 56%
    15:00 +19°C° 0 mm 10 mps 757 mmHg 56%
    16:00 +18°C° 0.2 mm 9 mps 756 mmHg 61%
    17:00 +17°C° 0.2 mm 8 mps 755 mmHg 66%
    18:00 +16°C° 0.2 mm 7 mps 755 mmHg 71%
    19:00 +15°C° 1 mm 7 mps 754 mmHg 75%
    20:00 +14°C° 1 mm 6 mps 754 mmHg 80%
    21:00 +13°C° 1 mm 6 mps 753 mmHg 85%
    22:00 +11°C° 2 mm 6 mps 753 mmHg 87%
    23:00 +10°C° 2 mm 5 mps 753 mmHg 90%

    Day after tomorrow, 28 May, Monday

    Time Temperature Precipitation Wind Pressure Humidity
    00:00 +9°C° 2 mm 5 mps 752 mmHg 93%
    01:00 +9°C° 0.2 mm 5 mps 753 mmHg 92%
    02:00 +8°C° 0.2 mm 5 mps 753 mmHg 92%
    03:00 +7°C° 0.2 mm 5 mps 753 mmHg 91%
    04:00 +7°C° 0.1 mm 6 mps 754 mmHg 88%
    05:00 +6°C° 0.1 mm 7 mps 755 mmHg 85%
    06:00 +6°C° 0.1 mm 7 mps 755 mmHg 82%
    07:00 +6°C° 0.1 mm 8 mps 755 mmHg 74%
    08:00 +7°C° 0.1 mm 8 mps 756 mmHg 67%
    09:00 +9°C° 0.1 mm 8 mps 756 mmHg 59%
    10:00 +9°C° 0.1 mm 8 mps 756 mmHg 57%
    11:00 +9°C° 0.1 mm 8 mps 757 mmHg 55%
    12:00 +9°C° 0.1 mm 8 mps 757 mmHg 53%
    13:00 +9°C° 0 mm 8 mps 757 mmHg 53%
    14:00 +7°C° 0 mm 8 mps 758 mmHg 53%
    15:00 +8°C° 0 mm 7 mps 758 mmHg 54%
    16:00 +8°C° 0 mm 7 mps 758 mmHg 55%
    17:00 +8°C° 0 mm 6 mps 759 mmHg 57%
    18:00 +7°C° 0 mm 5 mps 759 mmHg 59%
    19:00 +6°C° 0 mm 5 mps 759 mmHg 62%
    20:00 +5°C° 0 mm 4 mps 760 mmHg 64%
    21:00 +4°C° 0 mm 4 mps 760 mmHg 66%
    22:00 +3°C° 0 mm 3 mps 760 mmHg 67%
    23:00 +3°C° 0 mm 3 mps 760 mmHg 69%

    29 May, Tuesday

    Time Temperature Precipitation Wind Pressure Humidity
    00:00 +2°C° 0 mm 3 mps 760 mmHg 70%
    01:00 +2°C° 0 mm 3 mps 760 mmHg 72%
    02:00 +2°C° 0 mm 3 mps 760 mmHg 73%
    03:00 +1°C° 0 mm 3 mps 760 mmHg 75%
    04:00 +3°C° 0 mm 3 mps 759 mmHg 73%
    05:00 +4°C° 0 mm 4 mps 759 mmHg 72%
    06:00 +5°C° 0 mm 4 mps 758 mmHg 70%
    07:00 +5°C° 0.4 mm 4 mps 758 mmHg 76%
    08:00 +5°C° 0.4 mm 5 mps 757 mmHg 81%
    09:00 +6°C° 0.4 mm 5 mps 756 mmHg 86%
    10:00 +7°C° 0.2 mm 6 mps 756 mmHg 83%
    11:00 +9°C° 0.2 mm 6 mps 755 mmHg 80%
    12:00 +10°C° 0.2 mm 6 mps 755 mmHg 77%
    13:00 +11°C° 0.4 mm 6 mps 754 mmHg 76%
    14:00 +11°C° 0.4 mm 6 mps 754 mmHg 76%
    15:00 +12°C° 0.4 mm 7 mps 753 mmHg 75%
    16:00 +11°C° 0.2 mm 6 mps 753 mmHg 76%
    17:00 +12°C° 0.2 mm 5 mps 753 mmHg 78%
    18:00 +12°C° 0.2 mm 4 mps 753 mmHg 79%
    19:00 +11°C° 0.3 mm 4 mps 753 mmHg 84%
    20:00 +10°C° 0.3 mm 4 mps 753 mmHg 88%
    21:00 +8°C° 0.3 mm 4 mps 753 mmHg 93%
    22:00 +9°C° 0.1 mm 3 mps 753 mmHg 93%
    23:00 +9°C° 0.1 mm 3 mps 753 mmHg 94%

    30 May, Wednesday

    Time Temperature Precipitation Wind Pressure Humidity
    00:00 +8°C° 0.1 mm 3 mps 752 mmHg 95%
    01:00 +8°C° 0 mm 2 mps 752 mmHg 94%
    02:00 +8°C° 0 mm 2 mps 752 mmHg 94%
    03:00 +7°C° 0 mm 2 mps 752 mmHg 93%
    04:00 +8°C° 0.1 mm 2 mps 752 mmHg 91%
    05:00 +10°C° 0.1 mm 1 mps 752 mmHg 90%
    06:00 +11°C° 0.1 mm 1 mps 752 mmHg 88%
    07:00 +11°C° 0.2 mm 1 mps 752 mmHg 85%
    08:00 +12°C° 0.2 mm 2 mps 752 mmHg 81%
    09:00 +13°C° 0.2 mm 2 mps 752 mmHg 78%
    10:00 +13°C° 0.4 mm 2 mps 752 mmHg 79%
    11:00 +13°C° 0.4 mm 2 mps 752 mmHg 80%
    12:00 +13°C° 0.4 mm 2 mps 752 mmHg 81%
    13:00 +13°C° 0.5 mm 2 mps 752 mmHg 79%
    14:00 +13°C° 0.5 mm 2 mps 752 mmHg 77%
    15:00 +14°C° 0.5 mm 2 mps 752 mmHg 74%
    16:00 +14°C° 0.2 mm 2 mps 752 mmHg 75%
    17:00 +14°C° 0.2 mm 2 mps 752 mmHg 76%
    18:00 +14°C° 0.2 mm 2 mps 753 mmHg 77%
    19:00 +12°C° 0 mm 2 mps 753 mmHg 79%
    20:00 +10°C° 0 mm 2 mps 753 mmHg 81%
    21:00 +8°C° 0 mm 2 mps 754 mmHg 83%
    22:00 +9°C° 0 mm 1 mps 754 mmHg 82%
    23:00 +8°C° 0 mm 1 mps 754 mmHg 82%

    31 May, Thursday

    Time Temperature Precipitation Wind Pressure Humidity
    00:00 +7°C° 0 mm 1 mps 754 mmHg 82%
    01:00 +7°C° 0 mm 1 mps 754 mmHg 81%
    02:00 +6°C° 0 mm 1 mps 754 mmHg 81%
    03:00 +5°C° 0 mm 0 mps 754 mmHg 81%
    04:00 +6°C° 0 mm 0 mps 754 mmHg 77%
    05:00 +7°C° 0 mm 0 mps 754 mmHg 74%
    06:00 +9°C° 0 mm 0 mps 754 mmHg 71%
    07:00 +10°C° 0 mm 0 mps 754 mmHg 65%
    08:00 +12°C° 0 mm 0 mps 754 mmHg 60%
    09:00 +13°C° 0 mm 0 mps 753 mmHg 55%
    10:00 +15°C° 0 mm 1 mps 753 mmHg 53%
    11:00 +15°C° 0 mm 1 mps 753 mmHg 51%
    12:00 +15°C° 0 mm 1 mps 752 mmHg 49%
    13:00 +15°C° 0 mm 1 mps 752 mmHg 50%
    14:00 +15°C° 0 mm 1 mps 752 mmHg 51%
    15:00 +15°C° 0 mm 1 mps 751 mmHg 51%
    16:00 +15°C° 0 mm 1 mps 751 mmHg 57%
    17:00 +14°C° 0 mm 2 mps 751 mmHg 62%
    18:00 +14°C° 0 mm 2 mps 751 mmHg 67%
    19:00 +12°C° 0 mm 2 mps 750 mmHg 69%
    20:00 +10°C° 0 mm 2 mps 750 mmHg 71%
    21:00 +8°C° 0 mm 2 mps 750 mmHg 72%
    22:00 +8°C° 0 mm 2 mps 750 mmHg 73%
    23:00 +7°C° 0 mm 2 mps 750 mmHg 73%
    Show more